Location: Mentone
(34.5413°N, 85.5351°W)
Time: 06:12:27
(UTC-05:00)

Cosmos 2026 Rocket - Visible Passes

Search period start: 25 October 2014 00:00
Search period end: 03 November 2014 23:00
Orbit: 941 x 1001 km, 82.9° (Epoch: 24 October)

Date Brightness Start Highest point End Pass type
(mag) Time Alt. Az. Time Alt. Az. Time Alt. Az.
25 Oct 6.2 05:06:52 10° NNE 05:11:54 25° ENE 05:16:52 10° SE visible
25 Oct 4.0 18:30:34 10° S 18:36:46 65° E 18:43:04 10° NNE visible
25 Oct 6.7 20:18:47 10° WSW 20:22:33 16° WNW 20:26:21 10° NW visible
26 Oct 5.2 05:30:11 10° N 05:36:12 45° E 05:42:05 10° SSE visible
26 Oct 4.4 18:54:31 10° SSW 19:00:47 70° W 19:07:09 10° N visible
27 Oct 4.1 05:53:59 10° N 06:00:19 83° E 06:06:31 10° S visible
27 Oct 5.5 19:19:09 10° SW 19:24:57 38° WNW 19:30:50 10° N visible
28 Oct 6.5 04:34:19 10° NNE 04:38:39 19° ENE 04:42:55 10° ESE visible
28 Oct 4.1 06:18:10 10° NNW 06:24:16 54° W 06:30:15 10° SSW visible
28 Oct 6.5 19:44:40 10° WSW 19:49:17 21° WNW 19:53:57 10° NNW visible
29 Oct 5.5 04:57:19 10° NNE 05:03:01 35° ENE 05:08:35 10° SE visible
29 Oct 4.1 18:21:22 10° S 18:27:41 88° W 18:34:06 10° N visible
29 Oct 7.1 20:12:31 10° W 20:13:49 11° WNW 20:15:07 10° NW visible
30 Oct 4.4 05:20:57 10° N 05:27:12 65° E 05:33:19 10° SSE visible
30 Oct 5.1 18:45:43 10° SSW 18:51:47 49° W 18:57:56 10° N visible
31 Oct 6.7 04:02:03 10° NE 04:05:22 15° ENE 04:08:39 10° ESE visible
31 Oct 3.9 05:44:59 10° NNW 05:51:13 69° W 05:57:19 10° S visible
31 Oct 6.2 19:10:50 10° SW 19:16:03 27° WNW 19:21:20 10° NNW visible
01 Nov 5.9 04:24:34 10° NNE 04:29:48 27° ENE 04:34:57 10° SE visible
01 Nov 4.5 06:09:26 10° NNW 06:15:05 37° W 06:20:38 10° SSW visible
01 Nov 6.8 19:37:15 10° WSW 19:40:30 14° WNW 19:43:46 10° NW visible
02 Nov 4.8 03:47:59 10° N 03:54:03 50° E 04:00:00 10° SSE visible
02 Nov 5.2 05:34:31 10° NW 05:38:48 20° W 05:43:01 10° SW visible
02 Nov 4.7 17:12:24 10° SSW 17:18:39 62° W 17:24:59 10° N visible
03 Nov 6.8 02:30:34 10° NE 02:32:03 11° ENE 02:33:31 10° E visible
03 Nov 3.9 04:11:51 10° N 04:18:08 88° W 04:24:17 10° S visible
03 Nov 5.8 17:37:11 10° SW 17:42:51 34° WNW 17:48:34 10° NNW visible
